Location: Albany
(35.0000°S, 118.0000°E)
Time: 17:24:37
(UTC-04:00)

Atlas Centaur 2 - Visible Passes

Search period start: 17 April 2014 00:00
Search period end: 27 April 2014 00:00
Orbit: 460 x 1332 km, 30.4° (Epoch: 16 April)

Date Brightness Start Highest point End Pass type
(mag) Time Alt. Az. Time Alt. Az. Time Alt. Az.
17 Apr 3.8 15:58:32 35° N 15:59:48 37° NNE 16:07:25 10° E visible
17 Apr 3.5 17:41:26 10° WNW 17:49:24 61° N 17:57:57 10° E visible
18 Apr 3.6 15:58:30 41° N 15:59:18 42° NNE 16:07:08 10° E visible
18 Apr 3.4 17:41:22 11° WNW 17:48:58 63° N 17:57:34 10° E visible
19 Apr 3.4 15:58:26 47° N 15:58:49 47° NNE 16:06:47 10° E visible
19 Apr 3.4 17:41:17 12° WNW 17:48:33 64° N 17:57:09 10° E visible
20 Apr 3.2 15:58:18 52° NNE 15:58:22 52° NNE 16:06:23 10° E visible
20 Apr 3.3 17:41:09 13° W 17:48:08 64° N 17:56:43 10° ENE visible
21 Apr 3.1 15:58:09 56° NNE 15:58:09 56° NNE 16:05:58 10° E visible
21 Apr 3.3 17:41:00 14° W 17:47:43 62° N 17:56:15 10° ENE visible
22 Apr 3.0 15:57:59 58° NNE 15:57:59 58° NNE 16:05:31 10° E visible
22 Apr 3.3 17:40:50 15° W 17:47:18 59° N 17:55:43 10° ENE visible
23 Apr 3.0 15:57:49 58° NNE 15:57:49 58° NNE 16:05:03 10° E visible
23 Apr 3.4 17:40:40 15° W 17:46:52 54° N 17:55:09 10° ENE visible
24 Apr 3.0 15:57:38 57° NNE 15:57:38 57° NNE 16:04:34 10° ENE visible
24 Apr 3.5 17:40:29 15° W 17:46:25 49° NNW 17:54:30 10° ENE visible
25 Apr 3.1 15:57:29 53° NNE 15:57:29 53° NNE 16:04:02 10° ENE visible
25 Apr 3.6 17:40:20 15° W 17:45:58 43° NNW 17:53:45 10° NE visible
26 Apr 3.2 15:57:21 49° NNE 15:57:21 49° NNE 16:03:29 10° ENE visible
26 Apr 3.7 17:40:12 15° WNW 17:45:30 37° NNW 17:52:54 10° NE visible
